Regional Weather Roundup
Issued by NWS Mobile, AL

Home | Current Version | Previous Version | Text Only | Print | Product List | Glossary On
Versions: 1 2 3 4 5 6 7 8 9 10 11 12 13 14 15 16 17 18 19 20 21 22 23 24 25 26 27 28 29 30 31 32 33 34 35 36 37 38 39 40 41 42 43 44 45 46 47 48 49 50
000
ASUS44 KMOB 272112
RWRMOB
REGIONAL WEATHER ROUNDUP
NATIONAL WEATHER SERVICE MOBILE AL
400 PM CDT THU APR 27 2017

NOTE: "FAIR" INDICATES FEW OR NO CLOUDS BELOW 12,000 FEET WITH NO
      SIGNIFICANT WEATHER AND/OR OBSTRUCTIONS TO VISIBILITY.

  * THESE STATIONS ARE PART OF THE UNIVERSITY OF SOUTH ALABAMA
    MESONET AND ARE NOT UNDER NWS OR FAA QUALITY CONTROL.

ALZ061>064-272200-
COASTAL ALABAMA

CITY           SKY/WX    TMP DP  RH WIND       PRES   REMARKS
MOBILE REG APT MOSUNNY   86  65  49 SW10      29.79F
BROOKLEY FIELD MOSUNNY   82  74  76 S14       29.80F
USA CAMPUS*      N/A     84  66  54 CALM      29.79S
DOG RIVER*       N/A     84  70  61 S14       30.46F


CITY           SKY/WX    TMP DP  RH WIND       PRES   REMARKS
GULF SHORES    MOSUNNY   82  74  78 SW9       29.81S

$$

ALZ051>060-272200-
INTERIOR SOUTHWEST AND SOUTH CENTRAL ALABAMA

CITY           SKY/WX    TMP DP  RH WIND       PRES   REMARKS
GREENVILLE     MOSUNNY   83  66  56 W15       29.78F
EVERGREEN      PTSUNNY   84  66  54 SW10G18   29.79S
ATMORE*          N/A     84  70  61 W5        29.80S
ANDALUSIA/OPP  PTSUNNY   89  70  53 S9G20     29.79S
ANDALUSIA*       N/A     82  72  69 S7        29.80S
FLORALA APT    LGT RAIN  84  69  60 SW18G24   29.82R
FLORALA*         N/A     84  72  65 SE9       30.44S

$$

FLZ001>006-272200-
WESTERN FLORIDA PANHANDLE

CITY           SKY/WX    TMP DP  RH WIND       PRES   REMARKS
PENSACOLA      PTSUNNY   83  72  69 SW17      29.81S
NAS PENSACOLA  CLOUDY    80  73  79 SW15      29.81S
MILTON         PTSUNNY   84  73  69 S14G22    29.80S
WHTNG S FIELD  PTSUNNY   85  74  69 S14G22    29.80F


CITY           SKY/WX    TMP DP  RH WIND       PRES   REMARKS
JAY*             N/A     86  68  54 SW15      29.79S
DUKE FIELD     PTSUNNY   81  71  72 SW15      29.82S
CRESTVIEW      PTSUNNY   83  70  64 S16       29.83S
VALPARAISO     PTSUNNY   80  73  80 S13G20    29.82F FOG
DESTIN         CLOUDY    81  79  94 S9G17     29.83S

$$

MSZ076-079-272200-
INTERIOR SOUTHEAST MISSISSIPPI

CITY           SKY/WX    TMP DP  RH WIND       PRES   REMARKS
LEAKESVILLE*   NOT AVBL
AGRICOLA*        N/A     84  66  54 CALM      29.78F

$$

MARINE OBSERVATIONS

STATION/POSITION TIME  TEMP    WIND        PRES    WAVE
                       AIR SEA DIR/SP/G            HT/PER
                 (UTC) (F)     (DEG/KT/KT) (MB)    (FT/S)
PASCAGOULA       2048   79     210/  6/ 10 1009.0F
PETIT BOIS ISLND 2048   76     190/  7/  8 1009.9F
GRAND BAY        1945   77     190/  7     1010.0
KATRINA CUT      2030   76     200/  8     1009.1S
CEDAR POINT      2030   77     200/  9     1009.1F
E DAUPHIN ISLAND 2000   76     180/  8/ 10 1009.2F
MIDDLE BAY LIGHT 2030   77     180/ 12     1009.1F
USCG MOBILE BAY  2048   78 75  180/  8/ 14 1009.2F
STATE DOCKS      2048   78 76              1008.8F
MEAHER PARK      2030   77     160/ 15     1009.1F
FORT MORGAN      2048   77     190/  8/ 10   N/A
12 S ORANGE BCH  2050   76 75  200/ 12/ 14 1009.0F   4/ 7
PENSACOLA BAY    2048   80 75   CALM  /  6 1009.8F
64 S DAUPHIN ISL 2050   76 76  210/  8/ 10 1009.5F   5/ 7
67 S FORT MORGAN 2030   76     210/ 16     1009.8F

$$

SELECTED LOCATIONS ACROSS THE REGION

CITY           SKY/WX    TMP DP  RH WIND       PRES   REMARKS
NEW ORLEANS    MOSUNNY   81  61  50 NE7       29.78F
GULFPORT       SUNNY     83  60  45 S10       29.78F
PASCAGOULA AP  SUNNY     83  65  54 MISG      29.79F
PASCAGOULA*    NOT AVBL
HATTIESBURG    SUNNY     81  54  39 VRB6      29.80F
LAUREL         SUNNY     79  57  47 CALM      29.81F
MERIDIAN       SUNNY     79  60  52 NW6       29.81F
JACKSON        SUNNY     70  55  59 VRB3      29.83F
MONTGOMERY     SUNNY     85  62  46 W9        29.79F
TROY           MOSUNNY   83  71  67 SW9       29.79F
ASHFORD*         N/A     82  72  69 S7        29.80S
DOTHAN         PTSUNNY   82  73  74 S21G26    29.85S
PANAMA CITY    CLOUDY    79  73  82 S15       29.85F

$$




USA.gov is the U.S. government's official web portal to all federal, state and local government web resources and services.